[[{"header":{"parameterUnit":"m.s-1","parameterCategory":1,"la1":30.2991,"la2":30.254,"lo1":-89.0895,"lo2":-89.0444,"dy":0.0017,"dx":0.0017,"nx":28,"ny":28,"refTime":"2024-10-20T21:00:00:Z","depth":0,"parameterNumber":2,"parameterNumberName":"U-component_of_WINDS"},"data":[0,0,0,0,0,0,0,0,0,0,0,0,0,0,0,0,0,0,0,0,0,0,0,0,0,0,0,0,0,0,0,0,0,0,0,0,0,0,0,0,0,0,0,0,0,0,0,0,0,0,0,0,0,0,0,0,0,0,-2.4882,-2.4883,0,-2.4922,-2.4922,-2.4922,-2.4829,-2.4826,-2.4823,-2.482,-2.4864,-2.4868,-2.4872,0,0,0,0,0,0,0,0,0,0,0,0,0,-2.4729,-2.4732,-2.4882,-2.4883,-2.4883,-2.4921,-2.4922,-2.4923,-2.483,-2.4826,-2.4823,-2.4819,-2.4863,-2.4867,-2.4872,0,0,0,0,0,0,0,0,0,0,0,0,0,-2.4785,-2.4733,-2.4882,-2.4841,-2.4838,-2.4921,-2.4922,-2.4923,-2.4831,-2.4826,-2.4822,-2.4817,-2.4861,-2.4867,-2.4873,-2.4998,0,0,-2.4891,-2.4893,0,0,0,0,0,0,0,0,-2.4782,-2.479,-2.4847,-2.4844,-2.4841,-2.4866,-2.4884,-2.4948,-2.4832,-2.4834,-2.482,-2.4815,-2.4868,-2.4873,-2.4891,-2.5,-2.5002,-2.4891,-2.4895,-2.4897,-2.4899,0,0,0,0,0,0,0,-2.4778,-2.4788,-2.4898,-2.4848,-2.4844,-2.4822,-2.4825,-2.4895,-2.4876,-2.4833,-2.4826,-2.4832,-2.4866,-2.4885,-2.4891,-2.5003,-2.4891,-2.4896,-2.49,-2.4902,-2.5216,-2.5221,0,0,0,0,0,0,-2.4779,-2.4786,-2.4897,-2.4899,-2.48,-2.4828,-2.4832,-2.4862,-2.4875,-2.4872,-2.4836,-2.4828,-2.4877,-2.4884,-2.4892,-2.504,-2.4897,-2.4903,-2.4906,-2.5212,-2.5218,-2.5223,0,0,0,0,0,0,-2.4776,-2.479,-2.4895,-2.484,-2.4852,-2.4836,-2.4871,-2.4866,-2.4885,-2.4877,-2.4873,-2.4859,-2.4874,-2.4884,-2.4972,-2.504,-2.4905,-2.4911,-2.5206,-2.5213,-2.522,-2.5337,0,0,0,0,0,0,-2.4772,-2.4789,-2.4836,-2.4842,-2.4855,-2.4974,-2.4875,-2.487,-2.4895,-2.4884,-2.4898,-2.4895,-2.4871,-2.4964,-2.4978,-2.5046,-2.4915,-2.52,-2.5209,-2.5218,-2.5327,-2.5348,-2.5365,0,0,0,0,0,-2.4767,-2.4869,-2.4839,-2.4853,-2.4914,-2.4978,-2.4986,-2.4955,-2.4901,-2.4948,-2.4943,-2.4895,-2.503,-2.4974,-2.4989,-2.506,-2.5195,-2.5207,-2.5217,-2.5319,-2.5344,-2.5364,0,0,0,0,0,0,-2.4873,-2.4869,-2.4836,-2.4943,-2.4962,-2.4963,-2.5022,-2.4983,-2.5018,-2.5007,-2.4968,-2.4972,-2.5068,-2.5072,-2.5009,-2.5181,-2.5104,-2.5118,-2.5176,-2.5199,-2.5218,-2.5216,-2.492,0,0,0,0,0,-2.4908,-2.496,-2.4954,-2.5049,-2.5059,-2.5039,-2.5066,-2.504,-2.5059,-2.5067,-2.5068,-2.5088,-2.5135,-2.5167,-2.5209,-2.5326,-2.5328,-2.5382,-2.5401,-2.5417,-2.543,-2.5493,-2.5517,-2.5258,-2.5258,-2.5258,0,0,-2.4983,-2.4987,-2.5022,-2.507,-2.5081,-2.5137,-2.5047,-2.5109,-2.515,-2.5076,-2.516,-2.5161,-2.5181,-2.5284,-2.533,-2.5291,-2.5502,-2.5431,-2.5443,-2.5448,-2.5506,-2.5531,-2.5553,-2.5266,-2.5264,-2.5263,0,0,-2.5147,-2.5155,-2.5235,-2.5248,-2.5266,-2.5251,-2.527,-2.5277,-2.5275,-2.5357,-2.5303,-2.5351,-2.5433,-2.5449,-2.5468,-2.5637,-2.5595,-2.5652,-2.5751,-2.5812,-2.5833,-2.5851,-2.5912,-2.5934,-2.5665,-2.5665,-2.5665,0,-2.5238,-2.5319,-2.5281,-2.5347,-2.537,-2.5304,-2.5385,-2.5399,-2.5431,-2.5448,-2.5403,-2.5504,-2.5513,-2.5619,-2.566,-2.5677,-2.5698,-2.5651,-2.5833,-2.585,-2.5867,-2.5925,-2.5948,-2.5672,-2.5671,-2.567,-2.567,0,-2.543,-2.5486,-2.5549,-2.558,-2.5609,-2.5682,-2.5656,-2.5691,-2.5662,-2.5652,-2.5737,-2.5745,-2.5788,-2.5811,-2.5784,-2.5913,-2.5889,-2.5839,-2.576,-2.5899,-2.5953,-2.5974,-2.5682,-2.5679,-2.5677,-2.5676,0,0,-2.5665,-2.5672,-2.5696,-2.5709,-2.5723,-2.5767,-2.5836,-2.5877,-2.5908,-2.5931,-2.5989,-2.6059,-2.6012,-2.6034,-2.6008,-2.6062,-2.6196,-2.6005,-2.6005,-2.6042,-2.634,-2.6379,-2.6405,-2.6166,-2.617,-2.6174,-2.6338,0,-2.5828,-2.5948,-2.5915,-2.6035,-2.6087,-2.6024,-2.6085,-2.61,-2.6093,-2.6136,-2.6127,-2.6178,-2.6112,-2.6125,-2.6175,-2.6169,-2.6255,-2.6156,-2.6222,-2.6225,-2.6221,-2.6433,-2.6474,-2.6629,-2.6359,-2.6363,-2.6365,0,-2.6036,-2.6066,-2.6191,-2.6195,-2.6216,-2.6271,-2.6306,-2.6347,-2.6363,-2.6354,-2.6377,-2.634,-2.6409,-2.6328,-2.6424,-2.6357,-2.6381,-2.6382,-2.6388,-2.6394,-2.6305,-2.6447,-2.6678,-2.6702,-2.6398,-2.6395,-2.6393,0,-2.6197,-2.6268,-2.6352,-2.6365,-2.6372,-2.6412,-2.6417,-2.6429,-2.6455,-2.6485,-2.6502,-2.654,-2.6561,-2.6592,-2.6566,-2.6509,-2.6666,-2.6582,-2.6661,-2.6662,-2.6699,-2.6698,-2.6939,-2.6712,-2.6711,-2.6711,-2.671,0,-2.6384,-2.6463,-2.6424,-2.6476,-2.6563,-2.6524,-2.6611,-2.6609,-2.6619,-2.667,-2.6617,-2.6666,-2.6628,-2.6673,-2.6653,-2.6736,-2.6745,-2.674,-2.6735,-2.6747,-2.6748,-2.6764,-2.6753,-2.6717,-2.6716,-2.6714,-2.6713,0,-2.6579,-2.6556,-2.6644,-2.6642,-2.6644,-2.6708,-2.6707,-2.6755,-2.6742,-2.6807,-2.682,-2.6801,-2.6852,-2.6828,-2.6882,-2.6868,-2.6975,-2.6953,-2.6969,-2.6965,-2.7045,-2.7039,-2.7308,-2.7341,-2.709,-2.7093,-2.7095,0,-2.6701,-2.6761,-2.6765,-2.6795,-2.6803,-2.6851,-2.6877,-2.6841,-2.6871,-2.6892,-2.6938,-2.6984,-2.7019,-2.7103,-2.7094,-2.7135,-2.7115,-2.7206,-2.7121,-2.7131,-2.7119,-2.7116,-2.7122,-2.7225,-2.7228,-2.723,-2.7232,0,-2.6921,-2.6906,-2.6945,-2.6981,-2.7013,-2.7039,-2.7061,-2.7088,-2.7053,-2.7088,-2.7139,-2.7166,-2.7219,-2.7266,-2.7301,-2.7306,-2.7265,-2.7258,-2.7279,-2.7293,-2.73,-2.7299,-2.7018,-2.7253,-2.7251,-2.7249,-2.7248,-2.7247,-2.7085,-2.7134,-2.7145,-2.719,-2.7202,-2.7224,-2.7269,-2.7261,-2.7302,-2.7342,-2.7318,-2.7378,-2.7391,-2.7433,-2.7444,-2.7491,-2.7455,-2.7484,-2.7492,-2.7501,-2.7512,-2.7291,-2.7497,-2.7496,-2.7495,-2.7495,-2.7494,0,-2.7303,-2.7306,-2.7348,-2.7379,-2.7415,-2.7369,-2.7391,-2.7424,-2.7477,-2.7492,-2.7527,-2.7585,-2.7629,-2.7623,-2.7664,-2.7702,-2.7684,-2.7714,-2.7712,-2.7714,-2.7541,-2.752,-2.7729,-2.7729,-2.7729,-2.7728,-2.7728,-2.7728,-2.7421,-2.7502,-2.7489,-2.7576,-2.7578,-2.7635,-2.7652,-2.7671,-2.7683,-2.775,-2.7786,-2.7781,-2.7788,-2.7828,-2.7867,-2.7864,-2.7882,-2.7921,-2.7911,-2.775,-2.7727,-2.7705,-2.7685,-2.7924,-2.7925,-2.808,-2.8082,-2.8083]},{"header":{"parameterUnit":"m.s-1","parameterCategory":1,"la1":30.2991,"la2":30.254,"lo1":-89.0895,"lo2":-89.0444,"dy":0.0017,"dx":0.0017,"nx":28,"ny":28,"refTime":"2024-10-20T21:00:00:Z","depth":0,"parameterNumber":3,"parameterNumberName":"V-component_of_WINDS"},"data":[0,0,0,0,0,0,0,0,0,0,0,0,0,0,0,0,0,0,0,0,0,0,0,0,0,0,0,0,0,0,0,0,0,0,0,0,0,0,0,0,0,0,0,0,0,0,0,0,0,0,0,0,0,0,0,0,0,0,-3.5961,-3.5962,0,-3.5985,-3.5985,-3.5985,-3.5922,-3.592,-3.5918,-3.5916,-3.5939,-3.5941,-3.5943,0,0,0,0,0,0,0,0,0,0,0,0,0,-3.5859,-3.5861,-3.5961,-3.5962,-3.5962,-3.5985,-3.5985,-3.5985,-3.5922,-3.592,-3.5918,-3.5915,-3.5938,-3.5941,-3.5944,0,0,0,0,0,0,0,0,0,0,0,0,0,-3.5895,-3.5862,-3.5961,-3.5933,-3.5931,-3.5985,-3.5985,-3.5986,-3.5923,-3.592,-3.5917,-3.5914,-3.5937,-3.594,-3.5944,-3.6026,0,0,-3.5955,-3.5957,0,0,0,0,0,0,0,0,-3.5893,-3.5899,-3.5937,-3.5935,-3.5933,-3.5948,-3.5957,-3.5999,-3.5924,-3.5926,-3.5916,-3.5913,-3.5944,-3.5947,-3.5958,-3.6027,-3.6028,-3.5955,-3.5958,-3.5959,-3.596,0,0,0,0,0,0,0,-3.5891,-3.5898,-3.5971,-3.5938,-3.5935,-3.5919,-3.592,-3.5965,-3.5951,-3.5925,-3.5921,-3.5925,-3.5942,-3.5954,-3.5958,-3.6028,-3.5955,-3.5959,-3.5961,-3.5962,-3.6163,-3.6166,0,0,0,0,0,0,-3.5892,-3.5896,-3.597,-3.5971,-3.5905,-3.5923,-3.5925,-3.5946,-3.595,-3.5948,-3.5927,-3.5922,-3.5949,-3.5953,-3.5958,-3.6053,-3.5959,-3.5963,-3.5965,-3.616,-3.6164,-3.6167,0,0,0,0,0,0,-3.589,-3.59,-3.5969,-3.5932,-3.594,-3.5928,-3.5952,-3.5948,-3.596,-3.5952,-3.5949,-3.5942,-3.5947,-3.5953,-3.6009,-3.6053,-3.5964,-3.5968,-3.6156,-3.6161,-3.6166,-3.6244,0,0,0,0,0,0,-3.5888,-3.5899,-3.5931,-3.5934,-3.5942,-3.602,-3.5954,-3.595,-3.5966,-3.5959,-3.5965,-3.5963,-3.5945,-3.6004,-3.6013,-3.6056,-3.597,-3.6152,-3.6159,-3.6164,-3.6237,-3.6251,-3.6262,0,0,0,0,0,-3.5884,-3.5952,-3.5933,-3.5942,-3.5982,-3.6023,-3.6028,-3.6007,-3.597,-3.6001,-3.5996,-3.5963,-3.6047,-3.601,-3.6019,-3.6065,-3.615,-3.6157,-3.6164,-3.6232,-3.6248,-3.6262,0,0,0,0,0,0,-3.5954,-3.5952,-3.5931,-3.6001,-3.6013,-3.6012,-3.6051,-3.6025,-3.6047,-3.6039,-3.6011,-3.6013,-3.6074,-3.6075,-3.6034,-3.6143,-3.6092,-3.6101,-3.614,-3.6156,-3.6168,-3.6166,-3.5973,0,0,0,0,0,-3.5978,-3.6013,-3.6008,-3.6071,-3.6078,-3.6064,-3.6081,-3.6063,-3.6074,-3.6079,-3.6077,-3.6088,-3.6117,-3.6136,-3.6162,-3.6237,-3.6237,-3.6273,-3.6285,-3.6295,-3.6304,-3.6342,-3.6357,-3.6191,-3.6191,-3.619,0,0,-3.6027,-3.603,-3.6054,-3.6085,-3.6092,-3.6127,-3.6068,-3.6109,-3.6134,-3.6084,-3.6137,-3.6137,-3.6147,-3.6212,-3.6241,-3.6215,-3.635,-3.6304,-3.6313,-3.6315,-3.6351,-3.6367,-3.6381,-3.6195,-3.6195,-3.6194,0,0,-3.6135,-3.6141,-3.6193,-3.6202,-3.6213,-3.6203,-3.6215,-3.6219,-3.6216,-3.6269,-3.6232,-3.6262,-3.6312,-3.632,-3.6331,-3.6441,-3.6411,-3.645,-3.6515,-3.6553,-3.6566,-3.6577,-3.6616,-3.663,-3.6459,-3.6459,-3.6459,0,-3.6195,-3.6247,-3.6224,-3.6266,-3.6281,-3.6237,-3.6289,-3.6298,-3.6317,-3.6328,-3.6298,-3.636,-3.6364,-3.643,-3.6457,-3.6467,-3.648,-3.6449,-3.6566,-3.6577,-3.6588,-3.6624,-3.6638,-3.6463,-3.6463,-3.6462,-3.6462,0,-3.6319,-3.6356,-3.6397,-3.6417,-3.6436,-3.6483,-3.6465,-3.6487,-3.6468,-3.646,-3.6514,-3.6517,-3.6542,-3.6557,-3.6538,-3.662,-3.6604,-3.6571,-3.6518,-3.6609,-3.6642,-3.6656,-3.647,-3.6468,-3.6467,-3.6466,0,0,-3.6472,-3.6478,-3.6493,-3.6501,-3.6509,-3.6537,-3.6582,-3.6607,-3.6626,-3.664,-3.6676,-3.6719,-3.6688,-3.6701,-3.6683,-3.6716,-3.6801,-3.6679,-3.6678,-3.6701,-3.689,-3.6915,-3.6931,-3.6782,-3.6784,-3.6786,-3.6889,0,-3.6578,-3.6655,-3.6634,-3.6711,-3.6744,-3.6703,-3.6741,-3.675,-3.6745,-3.6771,-3.6764,-3.6795,-3.6753,-3.676,-3.6791,-3.6785,-3.6839,-3.6777,-3.6814,-3.6816,-3.6812,-3.6949,-3.6975,-3.7072,-3.6902,-3.6905,-3.6906,0,-3.6711,-3.6731,-3.6811,-3.6813,-3.6826,-3.6861,-3.6882,-3.6908,-3.6917,-3.691,-3.6924,-3.6899,-3.6942,-3.6889,-3.6947,-3.6906,-3.6919,-3.6919,-3.6922,-3.6924,-3.6866,-3.6954,-3.7103,-3.7117,-3.6927,-3.6925,-3.6924,0,-3.6814,-3.686,-3.6913,-3.6922,-3.6926,-3.6951,-3.6954,-3.696,-3.6976,-3.6994,-3.7003,-3.7026,-3.7038,-3.7056,-3.7037,-3.7001,-3.7098,-3.7044,-3.7092,-3.7093,-3.7114,-3.7113,-3.7267,-3.7125,-3.7124,-3.7124,-3.7124,0,-3.6934,-3.6984,-3.6959,-3.6992,-3.7047,-3.7022,-3.7077,-3.7074,-3.708,-3.7111,-3.7077,-3.7106,-3.708,-3.7107,-3.7093,-3.7142,-3.7148,-3.7143,-3.7139,-3.7146,-3.7147,-3.7154,-3.7147,-3.7128,-3.7127,-3.7126,-3.7126,0,-3.7057,-3.7043,-3.7098,-3.7097,-3.7098,-3.7138,-3.7137,-3.7167,-3.7158,-3.7198,-3.7206,-3.7192,-3.7222,-3.7205,-3.7236,-3.7226,-3.729,-3.7277,-3.7287,-3.7283,-3.7332,-3.7328,-3.7496,-3.7516,-3.7362,-3.7363,-3.7365,0,-3.7134,-3.7172,-3.7175,-3.7193,-3.7198,-3.7229,-3.7244,-3.7221,-3.7239,-3.7251,-3.7279,-3.7306,-3.7327,-3.7376,-3.7369,-3.7392,-3.7378,-3.7435,-3.7381,-3.7387,-3.7378,-3.7376,-3.7379,-3.7446,-3.7448,-3.7449,-3.7451,0,-3.7272,-3.7263,-3.7288,-3.731,-3.733,-3.7346,-3.7359,-3.7376,-3.7352,-3.7374,-3.7404,-3.742,-3.7451,-3.7478,-3.7498,-3.7499,-3.7471,-3.7468,-3.748,-3.7487,-3.7492,-3.7489,-3.7316,-3.7464,-3.7462,-3.7461,-3.7461,-3.746,-3.7374,-3.7405,-3.7412,-3.744,-3.7448,-3.746,-3.7488,-3.7483,-3.7508,-3.7531,-3.7516,-3.7551,-3.7558,-3.7581,-3.7586,-3.7613,-3.759,-3.7608,-3.7612,-3.7617,-3.7623,-3.7488,-3.7616,-3.7616,-3.7616,-3.7615,-3.7615,0,-3.751,-3.7512,-3.7538,-3.7557,-3.7579,-3.7551,-3.7563,-3.7583,-3.7615,-3.7624,-3.7644,-3.7679,-3.7704,-3.7698,-3.7721,-3.7744,-3.7731,-3.7751,-3.7748,-3.7749,-3.7643,-3.763,-3.776,-3.776,-3.776,-3.776,-3.776,-3.776,-3.7583,-3.7634,-3.7625,-3.7678,-3.768,-3.7714,-3.7724,-3.7735,-3.7742,-3.7782,-3.7803,-3.7799,-3.7801,-3.7824,-3.7846,-3.7843,-3.7853,-3.7877,-3.787,-3.7771,-3.7757,-3.7743,-3.773,-3.788,-3.788,-3.7973,-3.7974,-3.7975]}]]